Weather History for Alicante, Spain

Change the Weather History Date:

Thursday, April 18, 2013

  Actual Average Record
Temperature  
Mean Temperature 60 °F -  
Max Temperature 66 °F 71 °F 80 °F (2005)
Min Temperature 53 °F 54 °F 46 °F (1998)
Degree Days  
Heating Degree Days 6    
Growing Degree Days 10 (Base 50)    
Moisture  
Dew Point 56 °F    
Average Humidity 87    
Maximum Humidity 100    
Minimum Humidity 54    
Precipitation  
Precipitation 0.00 in - - ()
Sea Level Pressure  
Sea Level Pressure 30.14 in    
Wind  
Wind Speed 2 mph ()    
Max Wind Speed 9 mph    
Max Gust Speed -    
Visibility 3.2 miles    
Events Fog    
Averages and records for this station are not official NWS values.
T = Trace of Precipitation, MM = Missing Value Source: Averaged Metar Reports

Daily Weather History Graph

Daily Weather History Graph

Search for Another Location

Airport:

Trip Planner

Search our weather history database for the weather conditions in past years. The results will help you decide how hot, cold, wet, or windy it might be!

Date:

Astronomy

Apr. 18, 2013 Rise Set
Actual Time 7:22 AM CEST 8:41 PM CEST
Civil Twilight 6:54 AM CEST 9:08 PM CEST
Nautical Twilight 6:21 AM CEST 9:41 PM CEST
Astronomical Twilight 5:47 AM CEST 10:16 PM CEST
Moon 1:20 PM CEST 2:46 AM CEST
Length of Visible Light 14h 14m
Length of Day
13h 19m
Waxing Crescent, 49% of the Moon is Illuminated
Apr 18
Waxing Crescent
Apr 18
First Quarter
Apr 25
Full
May 2
Last Quarter
May 10
New

Hourly Weather History & Observations

Time (CEST) Temp. Dew Point Humidity Pressure Visibility Wind Dir Wind Speed Gust Speed Precip Events Conditions
12:00 AM 59.0 °F 55.4 °F 88% 30.15 in - Calm Calm - N/A   Clear
12:30 AM 57.2 °F 53.6 °F 88% 30.15 in 5.6 mi Calm Calm - N/A   Unknown
1:00 AM 55.4 °F 53.6 °F 94% 30.18 in 5.6 mi Calm Calm - N/A   Unknown
1:30 AM 55.4 °F 53.6 °F 94% 30.18 in 5.6 mi Calm Calm - N/A   Unknown
2:00 AM 54 °F 50 °F 80% 30.19 in 5 mi Calm Calm - -   Mist
2:00 AM 55.4 °F 53.6 °F 94% 30.18 in 5.0 mi Calm Calm - N/A   Unknown
2:30 AM 57.2 °F 53.6 °F 88% 30.18 in 5.0 mi Variable 2.3 mph - N/A   Unknown
3:00 AM 57.2 °F 55.4 °F 94% 30.15 in 5.0 mi Variable 1.2 mph - N/A   Unknown
3:30 AM 59.0 °F 57.2 °F 94% 30.15 in 5.0 mi Variable 2.3 mph - N/A   Unknown
4:00 AM 59.0 °F 57.2 °F 94% 30.15 in 4.3 mi Variable 1.2 mph - N/A   Partly Cloudy
4:30 AM 59.0 °F 57.2 °F 94% 30.15 in 4.3 mi Variable 2.3 mph - N/A   Partly Cloudy
5:00 AM 59.0 °F 57.2 °F 94% 30.15 in 3.7 mi Variable 2.3 mph - N/A   Scattered Clouds
6:00 AM 57.2 °F 55.4 °F 94% 30.15 in 2.5 mi Variable 1.2 mph - N/A   Mostly Cloudy
6:13 AM 55.4 °F 55.4 °F 100% 30.15 in 1.9 mi Variable 2.3 mph - N/A   Mostly Cloudy
6:30 AM 55.4 °F 55.4 °F 100% 30.15 in 1.2 mi Variable 1.2 mph - N/A Fog Patches of Fog
6:35 AM 55.4 °F 55.4 °F 100% 30.15 in 0.6 mi Variable 1.2 mph - N/A Fog Patches of Fog
7:00 AM 55.4 °F 55.4 °F 100% 30.15 in 0.6 mi Variable 2.3 mph - N/A Fog Patches of Fog
7:09 AM 55.4 °F 55.4 °F 100% 30.15 in 0.4 mi Variable 1.2 mph - N/A Fog Fog
7:30 AM 55.4 °F 55.4 °F 100% 30.15 in 0.4 mi Variable 1.2 mph - N/A Fog Fog
8:00 AM 54 °F 51 °F 87% 30.17 in 0 mi West 1.2 mph - - Fog Partial Fog
8:00 AM 55.4 °F 55.4 °F 100% 30.15 in 0.4 mi Variable 1.2 mph - N/A Fog Fog
8:15 AM 55.4 °F 55.4 °F 100% 30.15 in 0.6 mi Variable 1.2 mph - N/A Fog Patches of Fog
8:30 AM 55.4 °F 55.4 °F 100% 30.15 in 0.6 mi Calm Calm - N/A Fog Patches of Fog
9:00 AM 55.4 °F 55.4 °F 100% 30.18 in 0.6 mi Calm Calm - N/A Fog Patches of Fog
9:30 AM 55.4 °F 55.4 °F 100% 30.18 in 0.6 mi Calm Calm - N/A Fog Patches of Fog
10:00 AM 57.2 °F 57.2 °F 100% 30.18 in 1.2 mi Variable 1.2 mph - N/A Fog Patches of Fog
10:30 AM 59.0 °F 57.2 °F 94% 30.18 in 1.9 mi Calm Calm - N/A   Mostly Cloudy
11:00 AM 60.8 °F 57.2 °F 88% 30.18 in 2.5 mi Calm Calm - N/A   Mostly Cloudy
11:30 AM 62.6 °F 57.2 °F 82% 30.18 in 3.7 mi Variable 1.2 mph - N/A   Scattered Clouds
12:30 PM 66.2 °F 57.2 °F 73% 30.15 in 5.6 mi East 5.8 mph - N/A   Partly Cloudy
1:00 PM 64.4 °F 57.2 °F 77% 30.15 in 5.6 mi East 5.8 mph - N/A   Partly Cloudy
1:30 PM 66.2 °F 57.2 °F 73% 30.15 in - East 6.9 mph - N/A   Clear
2:00 PM 66 °F 53 °F 54% 30.14 in 7 mi East 9.2 mph - -  
2:00 PM 66.2 °F 57.2 °F 73% 30.12 in - East 8.1 mph - N/A   Clear
2:30 PM 66.2 °F 57.2 °F 73% 30.12 in - East 8.1 mph - N/A   Clear
3:00 PM 64.4 °F 57.2 °F 77% 30.12 in - East 6.9 mph - N/A   Clear
3:30 PM 64.4 °F 57.2 °F 77% 30.12 in - ENE 8.1 mph - N/A   Clear
4:00 PM 62.6 °F 57.2 °F 82% 30.12 in - East 9.2 mph - N/A   Clear
4:30 PM 62.6 °F 55.4 °F 77% 30.12 in - East 8.1 mph - N/A   Clear
5:00 PM 62.6 °F 55.4 °F 77% 30.09 in - East 8.1 mph - N/A   Clear
5:30 PM 62.6 °F 55.4 °F 77% 30.09 in - East 8.1 mph - N/A   Clear
6:00 PM 62.6 °F 55.4 °F 77% 30.09 in - East 6.9 mph - N/A   Clear
6:30 PM 62.6 °F 55.4 °F 77% 30.09 in - East 6.9 mph - N/A   Clear
7:00 PM 62.6 °F 55.4 °F 77% 30.09 in - East 3.5 mph - N/A   Clear
7:30 PM 62.6 °F 55.4 °F 77% 30.09 in - Variable 2.3 mph - N/A   Clear
8:00 PM 63 °F 52 °F 59% 30.11 in 9 mi East 2.3 mph - -  
8:00 PM 62.6 °F 55.4 °F 77% 30.09 in - Variable 2.3 mph - N/A   Clear
8:30 PM 62.6 °F 55.4 °F 77% 30.09 in - Variable 1.2 mph - N/A   Clear
9:00 PM 60.8 °F 57.2 °F 88% 30.09 in - Variable 1.2 mph - N/A   Clear
9:30 PM 60.8 °F 57.2 °F 88% 30.09 in - Calm Calm - N/A   Clear
10:00 PM 59.0 °F 57.2 °F 94% 30.09 in - Calm Calm - N/A   Clear
10:30 PM 59.0 °F 57.2 °F 94% 30.12 in - Calm Calm - N/A   Clear
11:00 PM 60.8 °F 57.2 °F 88% 30.12 in - Variable 1.2 mph - N/A   Clear
11:30 PM 57.2 °F 53.6 °F 88% 30.12 in - Calm Calm - N/A   Clear